TDRS 13

Last updated on Sat Apr 13 2024 01:02:32 GMT+0100 (British Summer Time)

1 42915U 17047A 24103.23210458 -.00000111 00000+0 00000+0 0 9997 2 42915 3.6957 343.2780 0015481 106.6655 183.0100 1.00271944 24364
UTC large
Height (km)
Speed (km/s)
/
Latitude / Longitude
Inclination (degrees)
Orbital Period (minutes)
Azimuth
Elevation
Range (km)
Doppler Factor

Next 0 passes for location: London (51.5072 / 0.1276)

Sorry there are no passes over London.